Location: Unspecified
(47.9110°N, 14.3980°E)
Time: 03:47:38
(UTC+00:00)

ERS-1 Rocket - Pass Details

Date: 06 August 2020
Orbit: 754 x 757 km, 98.5° (Epoch: 25 September)

Event Time Altitude Azimuth Distance (km) Brightness Sun altitude
Exits shadow 21:16:08 24° 211° (SSW) 1,535 4.3 -21.0°
Maximum altitude 21:18:35 39° 263° (W) 1,131 4.0 -21.2°
Drops below altitude 10° 21:23:17 10° 332° (NNW) 2,292 6.6 -21.6°
Sets 21:25:45 0° 340° (NNW) 3,221 7.7 -21.8°
